Meath Environmental Platform

Observations for Trim Patrick St

Time AQI Temp °C Hum % Pres Pa CO μg/m³ H₂S μg/m³ NO μg/m³ NO₂ μg/m³ O₃ μg/m³ SO₂ μg/m³ PM1 μg/m³ PM2.5 μg/m³ PM10 μg/m³
Sunday 9 August 2026
05:23 2 18.5 69 82,699 0.04 1.62 2.13 11.67 39.59 0.63 4.57 7.39 8.13
05:22 2 18.5 69 82,547 0.03 3.25 2.01 20.17 48.62 0.86 4.57 9.55 10.51
05:21 2 18.5 69 82,256 0.04 1.28 1.89 12.38 36.03 0.58 5.43 10.29 11.31
05:20 2 18.5 69 82,020 0.03 2.28 1.68 14.69 41.11 0.11 4.57 10.3 11.33
05:19 2 18.5 69 81,809 0.03 2.86 1.7 16.64 49.74 0.28 4.57 8.85 9.74
05:18 2 18.5 69 81,587 0.03 2.04 1.98 14.89 40.88 0.25 5.43 9.56 10.52
05:17 2 18.6 69 81,352 0.03 3.04 2.02 16.94 44.69 0.37 4.57 8.85 9.74
05:16 2 18.5 68 81,095 0.04 3.62 2.09 24.41 47.52 0.42 5.43 9.59 10.55
05:14 2 18.5 68 80,728 0.04 1.05 2.1 13.01 39.99 0.44 2.86 7.42 8.16
05:09 2 18.5 68 80,081 0.03 2.51 2.17 14.77 39.6 0.28 4.57 9.61 10.58
05:08 2 18.5 68 79,933 0.05 2.99 2.11 23.21 47.27 0.17 3.71 8.15 8.97
05:03 2 18.6 68 79,609 0.03 1.38 2.13 15.2 49.47 0 3.71 7.43 8.18
05:02 2 18.6 68 79,560 0.04 1.49 2.13 13.33 43.22 0 3.71 7.45 8.19
05:01 2 18.6 68 79,564 0.02 1.91 2.03 20.16 45.82 0 4.57 8.17 8.99
05:00 2 18.6 68 79,538 0.03 0 1.88 12.59 40.14 0.45 4.57 8.17 8.99
04:59 2 18.6 68 79,554 0.02 0 1.76 11.8 41.83 0.29 2.86 7.45 8.19
04:58 2 18.6 68 79,575 0.03 0.31 1.87 13.56 43.17 0 3.71 7.44 8.18
04:57 2 18.6 68 79,587 0.02 0.31 1.84 15.55 41.36 0 2.86 6.72 7.39
04:56 2 18.6 68 79,585 0.02 0 2.08 10.32 43.21 0 3.71 7.45 8.19
04:55 2 18.6 68 79,595 0.02 0.68 2.05 16.28 41.57 0 2.86 6.72 7.39